sat.trackr.live / text

‹ back to catalog

STARLINK-35868

NORAD 66579 · 2025-268Y

PAYLOAD ACTIVE UNKNOWN

§ Identity

Operator
Country
US
Launch date
2025-11-21
Launch site
AFETR
Launch vehicle
Mass (kg)
RCS (m²)

Purposes: comms

External: N2YO · Heavens-Above · Gunter

§ Orbital elements

Epoch: 2026-05-25T01:55:11.947296Z

Period
94.27 min
Inclination
43.0019°
Eccentricity
0.0000383
Mean motion
15.27540611 rev/d
Perigee alt
482.9 km
Apogee alt
483.4 km
Semi-major
6,861.3 km
B*
7.3401e-5
RAAN
275.5657°
Arg perigee
297.8067°
Mean anomaly
62.2746°
Rev number
2,964

§ Raw data

STARLINK-358681 66579U 25268Y   26145.07999939  .00001756  00000+0  73401-4 0  99962 66579  43.0019 275.5657 0000383 297.8067  62.2746 15.27540611 29642

JSON: /api/v1/satellites/66579 · /tle

For live sub-satellite position, see the globe view (requires WebGL).

§ Visibility from observer

Set your observer location to see the next 7 days of passes ≥ 10°. The values pass through the URL so the page stays shareable.

No JS? Fill the form by hand. The geolocation button needs JavaScript.